Lid_Strength_Index
2 2 2 2 2 2 2 2 3 3 3 3 3 3 2 2 2 4 10 7 5 -1 -0 7 7 6 6 5 4 4 11 14 13 12 11 8 9 6 4 6 5 5 5 4 3
2 3 3 3 2 2 2 3 3 3 3 3 3 3 2 2 5 7 3 -1 -2 -2 7 11 10 7 8 6 6 8 12 11 8 8 9 8 8 7 7 7 7 6 4 3 2
3 3 3 3 3 3 3 3 3 3 3 3 3 3 2 3 6 7 -2 -3 -2 0 7 9 8 7 9 7 7 8 11 8 8 7 7 8 8 6 8 9 7 7 6 4 3
3 3 3 3 3 3 3 3 3 3 4 4 3 3 2 5 10 3 -3 -3 -3 4 7 7 7 9 11 9 7 10 8 7 7 6 7 8 7 7 7 6 5 5 4 4 4
3 3 3 3 3 3 3 3 3 3 4 4 3 3 4 6 5 1 -3 -2 2 6 7 7 8 9 13 7 7 9 8 7 6 6 7 6 8 8 7 5 4 4 4 4 4
4 4 4 4 3 3 3 3 4 3 3 3 3 2 5 8 1 -0 1 3 6 7 7 7 8 9 9 8 8 7 7 7 7 7 7 8 8 7 7 5 5 5 5 4 4
4 4 4 4 4 4 3 4 4 4 3 3 2 3 4 5 1 0 3 6 7 7 8 8 8 10 6 8 6 7 10 8 8 7 8 7 10 9 6 5 6 5 5 4 4
4 4 4 4 4 4 4 4 4 3 3 2 2 4 6 1 2 1 3 6 7 7 7 7 8 10 6 6 7 10 9 12 8 8 8 8 14 8 6 6 7 6 5 5 4
4 4 4 4 4 4 4 4 4 3 2 1 5 6 7 1 5 4 3 5 6 8 8 5 9 10 7 10 12 11 14 13 12 8 9 9 12 9 6 6 7 6 6 5 5
3 3 3 4 4 4 5 5 2 2 2 2 2 8 6 6 6 5 4 4 7 8 8 10 11 13 13 13 16 15 15 13 13 10 9 11 11 9 7 7 7 6 6 5 5
3 3 4 4 4 5 7 7 7 8 4 7 7 6 5 5 6 6 4 6 8 9 12 11 12 13 13 11 11 11 13 13 11 9 11 12 11 10 8 7 8 7 7 6 5
3 3 4 4 5 5 8 8 6 6 8 5 4 4 3 6 8 7 5 7 9 12 11 12 13 12 11 10 10 11 12 13 11 9 10 11 12 10 8 8 7 7 7 6 6
3 4 4 4 5 7 9 8 5 6 9 7 5 5 5 6 8 7 6 8 9 12 12 13 12 10 10 10 11 12 13 13 12 11 10 11 13 12 9 7 7 6 6 6 6
3 4 4 5 8 9 9 7 7 7 12 9 8 5 6 6 8 5 5 7 9 11 12 12 10 10 11 11 10 14 9 10 11 14 16 11 18 13 11 10 8 7 7 6 6
4 4 5 6 9 9 8 7 8 7 16 7 8 5 7 7 8 7 5 7 9 9 10 11 10 10 11 10 8 11 8 10 11 13 15 14 16 14 11 12 10 8 7 6 5
4 4 5 7 9 7 7 8 7 12 15 9 7 8 9 9 8 7 7 7 7 9 10 10 8 9 9 7 8 7 10 12 11 13 18 15 16 16 14 11 9 8 7 6 5
5 5 6 5 8 8 8 7 13 15 9 10 10 10 10 11 10 9 9 11 11 12 14 11 10 10 8 11 10 13 15 17 18 19 19 15 16 14 11 9 9 8 7 6 5
6 6 6 6 6 8 8 10 15 11 10 8 9 10 10 10 11 10 11 12 11 12 14 14 14 11 9 10 11 13 14 16 18 19 17 14 17 14 9 8 7 6 6 6 5
7 8 8 7 5 8 9 14 15 12 9 9 10 12 12 10 11 11 12 12 11 11 13 14 13 8 9 10 10 12 14 12 15 17 17 16 13 10 9 9 8 7 7 6 6
8 9 8 6 5 8 10 12 12 8 8 9 12 11 14 12 11 12 12 10 9 9 11 12 14 11 9 9 10 11 10 14 14 20 21 17 16 16 12 10 9 8 8 7 6
8 9 7 7 8 10 12 12 9 8 7 9 10 12 13 12 12 12 11 9 9 9 10 12 13 12 11 12 12 12 12 13 13 15 19 20 17 11 11 9 9 9 7 7 6
10 13 8 8 11 13 12 10 9 9 8 9 9 10 11 11 12 12 11 10 8 10 11 11 13 15 13 10 10 12 13 12 14 17 16 16 15 9 9 8 8 8 7 6 6
12 12 6 8 13 13 11 9 8 10 10 9 10 9 10 11 12 10 9 8 8 9 11 11 14 16 15 13 12 13 13 13 13 13 17 17 15 9 8 8 8 8 7 6 6
11 12 9 9 10 12 10 9 9 8 9 9 9 10 11 12 12 11 10 8 7 8 5 8 15 15 16 15 13 14 13 11 13 15 15 14 13 12 10 9 8 7 6 7 6
11 11 9 11 10 9 10 8 9 9 8 9 10 10 11 13 12 11 10 10 8 7 11 13 16 15 14 11 11 12 12 13 14 14 14 14 12 11 10 9 8 7 6 6 6
12 10 9 10 9 10 11 11 9 8 8 10 10 9 10 12 11 10 10 11 11 10 12 12 14 13 13 11 11 12 11 11 11 11 12 13 13 10 8 8 8 7 7 6 6
8 8 8 10 10 11 11 9 8 8 7 7 8 9 10 10 9 9 8 9 9 10 11 12 13 14 15 13 12 14 12 11 11 11 11 13 11 9 9 9 8 8 7 6 6